Hourly Weather Barlomino

Today, 6 May, Thursday

Time Temperature Precipitation Wind Pressure Humidity
00:00 +2°C° 0.6 mm 8 mps 736 mmHg 91%
01:00 +1°C° 0 mm 9 mps 736 mmHg 96%
02:00 +1°C° 0.7 mm 9 mps 736 mmHg 96%
03:00 +1°C° 0.7 mm 9 mps 736 mmHg 95%
04:00 +1°C° 0.7 mm 10 mps 737 mmHg 95%
05:00 +1°C° 0.2 mm 10 mps 737 mmHg 93%
06:00 +1°C° 0.2 mm 10 mps 737 mmHg 90%
07:00 +1°C° 0 mm 9 mps 738 mmHg 88%
08:00 +1°C° 0.1 mm 10 mps 738 mmHg 86%
09:00 +2°C° 0.1 mm 10 mps 739 mmHg 83%
10:00 +2°C° 0.1 mm 10 mps 739 mmHg 81%
11:00 +3°C° 0.1 mm 10 mps 739 mmHg 73%
12:00 +6°C° 0.1 mm 10 mps 740 mmHg 65%
13:00 +7°C° 0.1 mm 10 mps 740 mmHg 57%
14:00 +7°C° 0 mm 9 mps 740 mmHg 55%
15:00 +7°C° 0 mm 9 mps 740 mmHg 53%
16:00 +7°C° 0 mm 8 mps 740 mmHg 51%
17:00 +6°C° 0 mm 7 mps 740 mmHg 57%
18:00 +5°C° 0 mm 7 mps 740 mmHg 62%
19:00 +4°C° 0 mm 6 mps 741 mmHg 67%
20:00 +3°C° 0 mm 5 mps 741 mmHg 71%
21:00 +2°C° 0 mm 5 mps 741 mmHg 75%
22:00 +3°C° 0 mm 4 mps 741 mmHg 79%
23:00 +1°C° 0 mm 4 mps 741 mmHg 79%

Tomorrow, 7 May, Friday

Time Temperature Precipitation Wind Pressure Humidity
00:00 +1°C° 0 mm 4 mps 741 mmHg 80%
01:00 +1°C° 0 mm 4 mps 741 mmHg 80%
02:00 +2°C° 0 mm 3 mps 741 mmHg 81%
03:00 +2°C° 0 mm 3 mps 741 mmHg 81%
04:00 +2°C° 0 mm 3 mps 741 mmHg 82%
05:00 +3°C° 0 mm 3 mps 741 mmHg 77%
06:00 +4°C° 0 mm 3 mps 741 mmHg 73%
07:00 +5°C° 0 mm 3 mps 741 mmHg 69%
08:00 +7°C° 0 mm 3 mps 741 mmHg 64%
09:00 +8°C° 0 mm 3 mps 741 mmHg 58%
10:00 +9°C° 0 mm 3 mps 741 mmHg 53%
11:00 +8°C° 0 mm 4 mps 742 mmHg 53%
12:00 +8°C° 0 mm 4 mps 742 mmHg 54%
13:00 +8°C° 0 mm 5 mps 742 mmHg 54%
14:00 +8°C° 0 mm 5 mps 742 mmHg 55%
15:00 +7°C° 0 mm 5 mps 743 mmHg 56%
16:00 +7°C° 0 mm 5 mps 743 mmHg 57%
17:00 +6°C° 0 mm 4 mps 744 mmHg 64%
18:00 +5°C° 0 mm 4 mps 744 mmHg 70%
19:00 +4°C° 0 mm 3 mps 744 mmHg 77%
20:00 +3°C° 0 mm 3 mps 745 mmHg 82%
21:00 +3°C° 0 mm 3 mps 745 mmHg 87%
22:00 +2°C° 0 mm 3 mps 746 mmHg 92%
23:00 +2°C° 0 mm 3 mps 746 mmHg 93%

Day after tomorrow, 8 May, Saturday

Time Temperature Precipitation Wind Pressure Humidity
00:00 +2°C° 0 mm 3 mps 746 mmHg 94%
01:00 +1°C° 0 mm 3 mps 747 mmHg 94%
02:00 0°C° 0 mm 4 mps 747 mmHg 95%
03:00 0°C° 0 mm 4 mps 747 mmHg 95%
04:00 0°C° 0 mm 4 mps 747 mmHg 95%
05:00 +2°C° 0 mm 5 mps 748 mmHg 90%
06:00 +3°C° 0 mm 5 mps 748 mmHg 84%
07:00 +4°C° 0 mm 6 mps 748 mmHg 78%
08:00 +5°C° 0.2 mm 6 mps 749 mmHg 76%
09:00 +5°C° 0.2 mm 6 mps 749 mmHg 74%
10:00 +6°C° 0.2 mm 7 mps 749 mmHg 72%
11:00 +6°C° 0.1 mm 7 mps 749 mmHg 69%
12:00 +6°C° 0.1 mm 7 mps 750 mmHg 66%
13:00 +8°C° 0.1 mm 7 mps 750 mmHg 63%
14:00 +8°C° 0 mm 7 mps 750 mmHg 57%
15:00 +8°C° 0 mm 6 mps 751 mmHg 52%
16:00 +8°C° 0 mm 6 mps 751 mmHg 47%
17:00 +7°C° 0 mm 5 mps 751 mmHg 53%
18:00 +6°C° 0 mm 4 mps 751 mmHg 58%
19:00 +5°C° 0 mm 3 mps 751 mmHg 64%
20:00 +4°C° 0 mm 3 mps 751 mmHg 66%
21:00 +3°C° 0 mm 3 mps 752 mmHg 69%
22:00 +2°C° 0 mm 3 mps 752 mmHg 72%
23:00 +2°C° 0 mm 3 mps 752 mmHg 71%

9 May, Sunday

Time Temperature Precipitation Wind Pressure Humidity
00:00 +2°C° 0 mm 3 mps 752 mmHg 70%
01:00 +2°C° 0 mm 3 mps 751 mmHg 69%
02:00 +3°C° 0 mm 3 mps 751 mmHg 71%
03:00 +3°C° 0 mm 4 mps 751 mmHg 72%
04:00 +3°C° 0 mm 4 mps 751 mmHg 73%
05:00 +5°C° 0 mm 5 mps 750 mmHg 69%
06:00 +5°C° 0 mm 6 mps 750 mmHg 65%
07:00 +8°C° 0 mm 6 mps 750 mmHg 62%
08:00 +8°C° 0 mm 6 mps 749 mmHg 62%
09:00 +9°C° 0 mm 6 mps 749 mmHg 61%
10:00 +9°C° 0 mm 6 mps 749 mmHg 61%
11:00 +12°C° 0 mm 7 mps 749 mmHg 56%
12:00 +15°C° 0 mm 7 mps 749 mmHg 50%
13:00 +18°C° 0 mm 7 mps 748 mmHg 45%
14:00 +18°C° 0 mm 7 mps 748 mmHg 47%
15:00 +19°C° 0 mm 6 mps 748 mmHg 49%
16:00 +20°C° 0 mm 6 mps 748 mmHg 51%
17:00 +17°C° 0 mm 5 mps 748 mmHg 57%
18:00 +16°C° 0 mm 5 mps 748 mmHg 63%
19:00 +15°C° 0 mm 5 mps 748 mmHg 68%
20:00 +14°C° 0 mm 5 mps 748 mmHg 72%
21:00 +13°C° 0 mm 5 mps 748 mmHg 76%
22:00 +13°C° 0 mm 5 mps 748 mmHg 80%
23:00 +12°C° 0 mm 5 mps 749 mmHg 82%

10 May, Monday

Time Temperature Precipitation Wind Pressure Humidity
00:00 +10°C° 0 mm 5 mps 749 mmHg 83%
01:00 +10°C° 0 mm 5 mps 749 mmHg 85%
02:00 +9°C° 0 mm 5 mps 748 mmHg 82%
03:00 +9°C° 0 mm 5 mps 748 mmHg 79%
04:00 +8°C° 0 mm 5 mps 748 mmHg 77%
05:00 +10°C° 0 mm 6 mps 748 mmHg 71%
06:00 +11°C° 0 mm 6 mps 748 mmHg 66%
07:00 +14°C° 0 mm 7 mps 749 mmHg 60%
08:00 +16°C° 0 mm 7 mps 749 mmHg 55%
09:00 +17°C° 0 mm 7 mps 748 mmHg 50%
10:00 +20°C° 0 mm 7 mps 748 mmHg 46%
11:00 +21°C° 0 mm 7 mps 748 mmHg 45%
12:00 +22°C° 0 mm 7 mps 748 mmHg 45%
13:00 +23°C° 0 mm 7 mps 748 mmHg 44%
14:00 +23°C° 0 mm 7 mps 748 mmHg 47%
15:00 +23°C° 0 mm 6 mps 748 mmHg 50%
16:00 +22°C° 0 mm 6 mps 748 mmHg 53%
17:00 +21°C° 0 mm 5 mps 748 mmHg 59%
18:00 +20°C° 0 mm 4 mps 748 mmHg 66%
19:00 +18°C° 0 mm 4 mps 748 mmHg 72%
20:00 +17°C° 0 mm 4 mps 748 mmHg 77%
21:00 +16°C° 0 mm 3 mps 748 mmHg 82%
22:00 +14°C° 0 mm 3 mps 748 mmHg 87%
23:00 +14°C° 0 mm 3 mps 748 mmHg 90%

11 May, Tuesday

Time Temperature Precipitation Wind Pressure Humidity
00:00 +13°C° 0 mm 3 mps 748 mmHg 92%
01:00 +13°C° 0 mm 3 mps 748 mmHg 94%
02:00 +12°C° 0 mm 4 mps 748 mmHg 94%
03:00 +12°C° 0 mm 4 mps 747 mmHg 94%
04:00 +12°C° 0 mm 4 mps 747 mmHg 94%
05:00 +13°C° 0 mm 4 mps 747 mmHg 88%
06:00 +14°C° 0 mm 5 mps 747 mmHg 82%
07:00 +16°C° 0 mm 5 mps 747 mmHg 76%
08:00 +17°C° 0 mm 6 mps 747 mmHg 71%
09:00 +20°C° 0 mm 6 mps 747 mmHg 65%
10:00 +21°C° 0 mm 6 mps 747 mmHg 59%
11:00 +22°C° 0 mm 6 mps 747 mmHg 57%
12:00 +23°C° 0 mm 7 mps 747 mmHg 54%
13:00 +24°C° 0 mm 7 mps 747 mmHg 52%
14:00 +24°C° 0 mm 7 mps 746 mmHg 55%
15:00 +24°C° 0 mm 7 mps 746 mmHg 57%
16:00 +24°C° 0 mm 6 mps 746 mmHg 60%
17:00 +23°C° 0 mm 6 mps 746 mmHg 64%
18:00 +22°C° 0 mm 6 mps 746 mmHg 68%
19:00 +21°C° 0 mm 6 mps 746 mmHg 72%
20:00 +20°C° 0 mm 6 mps 746 mmHg 75%
21:00 +19°C° 0 mm 5 mps 747 mmHg 79%
22:00 +17°C° 0 mm 5 mps 747 mmHg 82%
23:00 +16°C° 0 mm 5 mps 747 mmHg 83%
Show more